Darstellungsparameter: Aktuell verwendete Einstellungen:
Skalierung der Graphiken ... ?
xyx+y,   Skalierungsfaktor:      Skalierung: Modus: x, Faktor: 1
Darstellungszeitraum ... ?
Vom - - bis: - -   Zeitraum: 22.12.2016 - 22.12.2016
Min/Max/Avg-Anzeige ... ?
Zeige MMA aktuell
Zeige MMA Monat
Zeige MMA alles
Zeige --A aktuell
Zeige --A Monat
Zeige --A alles
Keine MMA-Anzeige
MMA:
Minimum Maximum Average (ber die Originaldaten)
MMA-Basis: 14.04.2020 - 16.05.2020
Quicknavigation für Darstellung... ?
Tage:      1T, 2T, 3T, 5T -1T -2T -3T -5T +1T +2T +3T +5T
Wochen: 1W, 2W, 3W -1W -2W -3W +1W +2W +3W
Monate: 1M, 3M, 6M -1M -3M -6M +1M +3M +6M
Jahre:    1J, 3J, 5J, 10J -1J -3J -5J -10J +1J +3J +5J +10J
Nutze für die Darstellung ... ?
Originaldaten oder Mittelwerte auf ...
Stundenbasis Tagesbasis Wochenbasis
Monatsbasis Jahresbasis      Datenbasis: Original-Daten
Darstellen als:
Statistik (Auto) Statistik J:M      Darstellung:
Zur Graphik,    zurück zur Übersicht aller Sensoren.
 
Tabellarische Datenbersicht: ?
 
Sensor: Nr:Datum:Temp:Abs-Feuchte:Windchill:Wind:
Aussen-T/F 1 22-12-2016 00:00:00 3.4 C 5.62 g/m*3 3.4 C 0 km/h
2 22-12-2016 00:05:00 3.4 C 5.56 g/m*3 3.4 C 3.2 km/h
3 22-12-2016 00:10:00 3.4 C 5.56 g/m*3 3.4 C 0 km/h
4 22-12-2016 00:15:00 3.4 C 5.56 g/m*3 3.4 C 1.6 km/h
5 22-12-2016 00:20:00 3.5 C 5.6 g/m*3 3.5 C 0 km/h
6 22-12-2016 00:25:00 3.5 C 5.6 g/m*3 3.5 C 1.6 km/h
7 22-12-2016 00:30:00 3.6 C 5.63 g/m*3 3.6 C 0 km/h
8 22-12-2016 00:35:00 3.6 C 5.57 g/m*3 3.6 C 1.6 km/h
9 22-12-2016 00:40:00 3.6 C 5.57 g/m*3 3.6 C 0 km/h
10 22-12-2016 00:45:00 3.6 C 5.57 g/m*3 3.6 C 0 km/h
11 22-12-2016 00:50:00 3.6 C 5.57 g/m*3 3.6 C 4.8 km/h
12 22-12-2016 00:55:00 3.7 C 5.61 g/m*3 3.7 C 0 km/h
13 22-12-2016 01:00:00 3.7 C 5.61 g/m*3 3.7 C 0 km/h
14 22-12-2016 01:05:00 3.7 C 5.61 g/m*3 3.7 C 1.6 km/h
15 22-12-2016 01:10:00 3.6 C 5.57 g/m*3 3.6 C 1.6 km/h
16 22-12-2016 01:15:00 3.6 C 5.57 g/m*3 3.6 C 1.6 km/h
17 22-12-2016 01:20:00 3.7 C 5.61 g/m*3 3.7 C 3.2 km/h
18 22-12-2016 01:25:00 3.7 C 5.61 g/m*3 3.7 C 3.2 km/h
19 22-12-2016 01:30:00 3.7 C 5.55 g/m*3 3.7 C 0 km/h
20 22-12-2016 01:35:00 3.7 C 5.55 g/m*3 3.7 C 0 km/h
21 22-12-2016 01:40:00 3.7 C 5.55 g/m*3 3.7 C 0 km/h
22 22-12-2016 01:45:00 3.6 C 5.57 g/m*3 3.6 C 1.6 km/h
23 22-12-2016 01:50:00 3.6 C 5.51 g/m*3 3.6 C 1.6 km/h
24 22-12-2016 01:55:00 3.6 C 5.51 g/m*3 3.6 C 0 km/h
25 22-12-2016 02:00:00 3.6 C 5.51 g/m*3 3.6 C 0 km/h
Sensor: Nr:Datum:Temp:Abs-Feuchte:Windchill:Wind:
Aussen-T/F 26 22-12-2016 02:05:00 3.6 C 5.51 g/m*3 3.6 C 1.6 km/h
27 22-12-2016 02:10:00 3.7 C 5.55 g/m*3 3.7 C 1.6 km/h
28 22-12-2016 02:15:00 3.7 C 5.55 g/m*3 3.7 C 0 km/h
29 22-12-2016 02:20:00 3.7 C 5.55 g/m*3 3.7 C 0 km/h
30 22-12-2016 02:25:00 3.7 C 5.55 g/m*3 3.7 C 3.2 km/h
31 22-12-2016 02:30:00 3.7 C 5.55 g/m*3 3.7 C 4.8 km/h
32 22-12-2016 02:35:00 3.8 C 5.58 g/m*3 3.8 C 4.8 km/h
33 22-12-2016 02:40:00 3.8 C 5.52 g/m*3 3.8 C 0 km/h
34 22-12-2016 02:45:00 3.8 C 5.58 g/m*3 3.8 C 4.8 km/h
35 22-12-2016 02:50:00 3.8 C 5.58 g/m*3 3.8 C 1.6 km/h
36 22-12-2016 02:55:00 3.8 C 5.58 g/m*3 3.8 C 1.6 km/h
37 22-12-2016 03:00:00 3.7 C 5.55 g/m*3 3.7 C 3.2 km/h
38 22-12-2016 03:05:00 3.7 C 5.55 g/m*3 3.7 C 3.2 km/h
39 22-12-2016 03:10:00 3.7 C 5.55 g/m*3 3.7 C 1.6 km/h
40 22-12-2016 03:15:00 3.7 C 5.55 g/m*3 3.7 C 0 km/h
41 22-12-2016 03:20:00 3.6 C 5.51 g/m*3 3.6 C 1.6 km/h
42 22-12-2016 03:25:00 3.6 C 5.51 g/m*3 3.6 C 4.8 km/h
43 22-12-2016 03:30:00 3.6 C 5.51 g/m*3 3.6 C 1.6 km/h
44 22-12-2016 03:35:00 3.6 C 5.51 g/m*3 3.6 C 1.6 km/h
45 22-12-2016 03:40:00 3.6 C 5.51 g/m*3 3.6 C 1.6 km/h
46 22-12-2016 03:45:00 3.6 C 5.51 g/m*3 3.6 C 3.2 km/h
47 22-12-2016 03:50:00 3.6 C 5.51 g/m*3 3.6 C 4.8 km/h
48 22-12-2016 03:55:00 3.6 C 5.51 g/m*3 3.6 C 4.8 km/h
49 22-12-2016 04:00:00 3.6 C 5.51 g/m*3 3.6 C 3.2 km/h
50 22-12-2016 04:05:00 3.6 C 5.51 g/m*3 3.6 C 4.8 km/h
Sensor: Nr:Datum:Temp:Abs-Feuchte:Windchill:Wind:
Aussen-T/F 51 22-12-2016 04:10:00 3.6 C 5.51 g/m*3 3.6 C 1.6 km/h
52 22-12-2016 04:15:00 3.7 C 5.55 g/m*3 3.7 C 1.6 km/h
53 22-12-2016 04:20:00 3.6 C 5.51 g/m*3 3.6 C 3.2 km/h
54 22-12-2016 04:25:00 3.7 C 5.55 g/m*3 3.7 C 1.6 km/h
55 22-12-2016 04:30:00 3.6 C 5.51 g/m*3 3.6 C 1.6 km/h
56 22-12-2016 04:35:00 3.7 C 5.61 g/m*3 3.7 C 3.2 km/h
57 22-12-2016 04:40:00 3.7 C 5.55 g/m*3 3.7 C 4.8 km/h
58 22-12-2016 04:45:00 3.7 C 5.61 g/m*3 3.7 C 1.6 km/h
59 22-12-2016 04:50:00 3.7 C 5.61 g/m*3 3.7 C 0 km/h
60 22-12-2016 04:55:00 3.7 C 5.61 g/m*3 3.7 C 0 km/h
61 22-12-2016 05:00:00 3.7 C 5.61 g/m*3 3.7 C 3.2 km/h
62 22-12-2016 05:05:00 3.6 C 5.57 g/m*3 3.6 C 0 km/h
63 22-12-2016 05:10:00 3.6 C 5.57 g/m*3 3.6 C 1.6 km/h
64 22-12-2016 05:15:00 3.6 C 5.57 g/m*3 3.6 C 0 km/h
65 22-12-2016 05:20:00 3.5 C 5.53 g/m*3 3.5 C 1.6 km/h
66 22-12-2016 05:25:00 3.4 C 5.5 g/m*3 3.4 C 0 km/h
67 22-12-2016 05:30:00 3.4 C 5.5 g/m*3 3.4 C 0 km/h
68 22-12-2016 05:35:00 3.3 C 5.46 g/m*3 3.3 C 0 km/h
69 22-12-2016 05:40:00 3.3 C 5.46 g/m*3 3.3 C 0 km/h
70 22-12-2016 05:45:00 3.2 C 5.48 g/m*3 3.2 C 0 km/h
71 22-12-2016 05:50:00 3.2 C 5.48 g/m*3 3.2 C 0 km/h
72 22-12-2016 05:55:00 3.3 C 5.58 g/m*3 3.3 C 0 km/h
73 22-12-2016 06:00:00 3.3 C 5.58 g/m*3 3.3 C 0 km/h
74 22-12-2016 06:05:00 3.3 C 5.58 g/m*3 3.3 C 0 km/h
75 22-12-2016 06:10:00 3.3 C 5.58 g/m*3 3.3 C 0 km/h
Sensor: Nr:Datum:Temp:Abs-Feuchte:Windchill:Wind:
Aussen-T/F 76 22-12-2016 06:15:00 3.3 C 5.58 g/m*3 3.3 C 0 km/h
77 22-12-2016 06:20:00 3.3 C 5.58 g/m*3 3.3 C 0 km/h
78 22-12-2016 06:25:00 3.3 C 5.58 g/m*3 3.3 C 0 km/h
79 22-12-2016 06:30:00 3.4 C 5.62 g/m*3 3.4 C 0 km/h
80 22-12-2016 06:35:00 3.4 C 5.62 g/m*3 3.4 C 0 km/h
81 22-12-2016 06:40:00 3.4 C 5.62 g/m*3 3.4 C 1.6 km/h
82 22-12-2016 06:45:00 3.4 C 5.62 g/m*3 3.4 C 0 km/h
83 22-12-2016 06:50:00 3.4 C 5.62 g/m*3 3.4 C 1.6 km/h
84 22-12-2016 06:55:00 3.4 C 5.62 g/m*3 3.4 C 0 km/h
85 22-12-2016 07:00:00 3.4 C 5.62 g/m*3 3.4 C 0 km/h
86 22-12-2016 07:05:00 3.4 C 5.62 g/m*3 3.4 C 3.2 km/h
87 22-12-2016 07:10:00 3.5 C 5.66 g/m*3 3.5 C 0 km/h
88 22-12-2016 07:15:00 3.5 C 5.66 g/m*3 3.5 C 0 km/h
89 22-12-2016 07:20:00 3.5 C 5.66 g/m*3 3.5 C 0 km/h
90 22-12-2016 07:25:00 3.5 C 5.66 g/m*3 3.5 C 0 km/h
91 22-12-2016 07:30:00 3.5 C 5.66 g/m*3 3.5 C 0 km/h
92 22-12-2016 07:35:00 3.5 C 5.66 g/m*3 3.5 C 0 km/h
93 22-12-2016 07:40:00 3.6 C 5.69 g/m*3 3.6 C 0 km/h
94 22-12-2016 07:45:00 3.6 C 5.69 g/m*3 3.6 C 0 km/h
95 22-12-2016 07:50:00 3.6 C 5.69 g/m*3 3.6 C 0 km/h
96 22-12-2016 07:55:00 3.6 C 5.69 g/m*3 3.6 C 0 km/h
97 22-12-2016 08:00:00 3.6 C 5.69 g/m*3 1.98 C 6.4 km/h
98 22-12-2016 08:05:00 3.6 C 5.69 g/m*3 1.98 C 6.4 km/h
99 22-12-2016 08:10:00 3.7 C 5.73 g/m*3 3.7 C 1.6 km/h
100 22-12-2016 08:15:00 3.7 C 5.73 g/m*3 3.7 C 0 km/h
Sensor: Nr:Datum:Temp:Abs-Feuchte:Windchill:Wind:
Aussen-T/F 101 22-12-2016 08:20:00 3.7 C 5.73 g/m*3 3.7 C 1.6 km/h
102 22-12-2016 08:25:00 3.7 C 5.73 g/m*3 3.7 C 1.6 km/h
103 22-12-2016 08:30:00 3.7 C 5.67 g/m*3 3.7 C 0 km/h
104 22-12-2016 08:35:00 3.8 C 5.71 g/m*3 3.8 C 3.2 km/h
105 22-12-2016 08:40:00 3.8 C 5.71 g/m*3 3.8 C 0 km/h
106 22-12-2016 08:45:00 3.8 C 5.71 g/m*3 3.8 C 0 km/h
107 22-12-2016 08:50:00 3.9 C 5.75 g/m*3 3.9 C 1.6 km/h
108 22-12-2016 08:55:00 4 C 5.79 g/m*3 4 C 0 km/h
109 22-12-2016 09:00:00 4.1 C 5.82 g/m*3 4.1 C 0 km/h
110 22-12-2016 09:05:00 4.1 C 5.82 g/m*3 4.1 C 0 km/h
111 22-12-2016 09:10:00 4.1 C 5.82 g/m*3 4.1 C 0 km/h
112 22-12-2016 09:15:00 4.2 C 5.86 g/m*3 4.2 C 1.6 km/h
113 22-12-2016 09:20:00 4.2 C 5.86 g/m*3 4.2 C 0 km/h
114 22-12-2016 09:25:00 4.2 C 5.93 g/m*3 4.2 C 1.6 km/h
115 22-12-2016 09:30:00 4.2 C 5.93 g/m*3 4.2 C 1.6 km/h
116 22-12-2016 09:35:00 4.2 C 5.93 g/m*3 4.2 C 0 km/h
117 22-12-2016 09:40:00 4.1 C 5.95 g/m*3 4.1 C 0 km/h
118 22-12-2016 09:45:00 4.1 C 5.95 g/m*3 4.1 C 0 km/h
119 22-12-2016 09:50:00 4.1 C 5.95 g/m*3 4.1 C 0 km/h
120 22-12-2016 09:55:00 4.1 C 5.95 g/m*3 4.1 C 0 km/h
121 22-12-2016 10:00:00 4 C 5.91 g/m*3 4 C 0 km/h
122 22-12-2016 10:05:00 3.9 C 5.87 g/m*3 3.9 C 1.6 km/h
123 22-12-2016 10:10:00 3.9 C 5.94 g/m*3 3.9 C 1.6 km/h
124 22-12-2016 10:15:00 3.9 C 5.94 g/m*3 3.9 C 1.6 km/h
125 22-12-2016 10:20:00 3.9 C 5.94 g/m*3 3.9 C 0 km/h
Sensor: Nr:Datum:Temp:Abs-Feuchte:Windchill:Wind:
Aussen-T/F 126 22-12-2016 10:25:00 3.9 C 5.94 g/m*3 3.9 C 0 km/h
127 22-12-2016 10:30:00 3.8 C 5.9 g/m*3 3.8 C 0 km/h
128 22-12-2016 10:35:00 3.8 C 5.9 g/m*3 3.8 C 0 km/h
129 22-12-2016 10:40:00 3.8 C 5.9 g/m*3 3.8 C 1.6 km/h
130 22-12-2016 10:45:00 3.8 C 5.9 g/m*3 3.8 C 4.8 km/h
131 22-12-2016 10:50:00 3.8 C 5.9 g/m*3 3.8 C 3.2 km/h
132 22-12-2016 10:55:00 3.8 C 5.9 g/m*3 3.8 C 3.2 km/h
133 22-12-2016 11:00:00 3.8 C 5.9 g/m*3 3.8 C 3.2 km/h
134 22-12-2016 11:05:00 3.9 C 6 g/m*3 3.9 C 3.2 km/h
135 22-12-2016 11:10:00 3.9 C 6 g/m*3 3.9 C 1.6 km/h
136 22-12-2016 11:15:00 3.9 C 6 g/m*3 3.9 C 3.2 km/h
137 22-12-2016 11:20:00 3.9 C 6 g/m*3 2.32 C 6.4 km/h
138 22-12-2016 11:25:00 3.9 C 6 g/m*3 3.9 C 3.2 km/h
139 22-12-2016 11:30:00 3.9 C 6 g/m*3 3.9 C 1.6 km/h
140 22-12-2016 11:35:00 4 C 6.04 g/m*3 4 C 1.6 km/h
141 22-12-2016 11:40:00 4 C 6.04 g/m*3 4 C 4.8 km/h
142 22-12-2016 11:45:00 4 C 6.04 g/m*3 4 C 4.8 km/h
143 22-12-2016 11:50:00 4 C 6.04 g/m*3 4 C 3.2 km/h
144 22-12-2016 11:55:00 4 C 6.04 g/m*3 4 C 4.8 km/h
145 22-12-2016 12:00:00 3.9 C 6 g/m*3 3.9 C 3.2 km/h
146 22-12-2016 12:05:00 3.9 C 6 g/m*3 3.9 C 3.2 km/h
147 22-12-2016 12:10:00 3.9 C 6 g/m*3 3.9 C 1.6 km/h
148 22-12-2016 12:15:00 3.9 C 6 g/m*3 3.9 C 3.2 km/h
149 22-12-2016 12:20:00 3.9 C 6 g/m*3 3.9 C 3.2 km/h
150 22-12-2016 12:25:00 3.9 C 6 g/m*3 3.9 C 3.2 km/h
Sensor: Nr:Datum:Temp:Abs-Feuchte:Windchill:Wind:
Aussen-T/F 151 22-12-2016 12:30:00 3.9 C 6 g/m*3 3.9 C 1.6 km/h
152 22-12-2016 12:35:00 3.9 C 6 g/m*3 3.9 C 3.2 km/h
153 22-12-2016 12:40:00 3.9 C 6 g/m*3 3.9 C 3.2 km/h
154 22-12-2016 12:45:00 3.9 C 6 g/m*3 3.9 C 3.2 km/h
155 22-12-2016 12:50:00 3.9 C 6 g/m*3 3.9 C 3.2 km/h
156 22-12-2016 12:55:00 3.9 C 6 g/m*3 3.9 C 4.8 km/h
157 22-12-2016 13:00:00 3.9 C 6 g/m*3 3.9 C 4.8 km/h
158 22-12-2016 13:05:00 3.9 C 6 g/m*3 3.9 C 3.2 km/h
159 22-12-2016 13:10:00 3.9 C 6 g/m*3 3.9 C 0 km/h
160 22-12-2016 13:15:00 3.9 C 6 g/m*3 3.9 C 0 km/h
161 22-12-2016 13:20:00 3.9 C 6 g/m*3 3.9 C 1.6 km/h
162 22-12-2016 13:25:00 3.8 C 5.96 g/m*3 3.8 C 3.2 km/h
163 22-12-2016 13:30:00 3.8 C 5.96 g/m*3 3.8 C 1.6 km/h
164 22-12-2016 13:35:00 3.9 C 6 g/m*3 3.9 C 3.2 km/h
165 22-12-2016 13:40:00 3.9 C 6 g/m*3 3.9 C 1.6 km/h
166 22-12-2016 13:45:00 3.9 C 6 g/m*3 3.9 C 3.2 km/h
167 22-12-2016 13:50:00 3.9 C 6 g/m*3 3.9 C 4.8 km/h
168 22-12-2016 13:55:00 3.9 C 6 g/m*3 3.9 C 1.6 km/h
169 22-12-2016 14:00:00 4 C 6.04 g/m*3 4 C 1.6 km/h
170 22-12-2016 14:05:00 4.1 C 6.08 g/m*3 4.1 C 1.6 km/h
171 22-12-2016 14:10:00 4.1 C 6.14 g/m*3 4.1 C 0 km/h
172 22-12-2016 14:15:00 4.2 C 6.19 g/m*3 4.2 C 0 km/h
173 22-12-2016 14:20:00 4.2 C 6.19 g/m*3 4.2 C 1.6 km/h
174 22-12-2016 14:25:00 4.2 C 6.19 g/m*3 4.2 C 0 km/h
175 22-12-2016 14:30:00 4.2 C 6.19 g/m*3 4.2 C 0 km/h
Sensor: Nr:Datum:Temp:Abs-Feuchte:Windchill:Wind:
Aussen-T/F 176 22-12-2016 14:35:00 4.2 C 6.19 g/m*3 4.2 C 0 km/h
177 22-12-2016 14:40:00 4.2 C 6.19 g/m*3 4.2 C 0 km/h
178 22-12-2016 14:45:00 4.2 C 6.19 g/m*3 4.2 C 0 km/h
179 22-12-2016 14:50:00 4.2 C 6.19 g/m*3 4.2 C 0 km/h
180 22-12-2016 14:55:00 4.1 C 6.14 g/m*3 4.1 C 0 km/h
181 22-12-2016 15:00:00 4.2 C 6.19 g/m*3 4.2 C 0 km/h
182 22-12-2016 15:05:00 4.2 C 6.19 g/m*3 4.2 C 0 km/h
183 22-12-2016 15:10:00 4.2 C 6.19 g/m*3 4.2 C 0 km/h
184 22-12-2016 15:15:00 4.2 C 6.19 g/m*3 4.2 C 0 km/h
185 22-12-2016 15:20:00 4.2 C 6.19 g/m*3 4.2 C 0 km/h
186 22-12-2016 15:25:00 4.2 C 6.19 g/m*3 4.2 C 0 km/h
187 22-12-2016 15:30:00 4.2 C 6.19 g/m*3 4.2 C 0 km/h
188 22-12-2016 15:35:00 4.2 C 6.19 g/m*3 4.2 C 0 km/h
189 22-12-2016 15:40:00 4.2 C 6.19 g/m*3 4.2 C 0 km/h
190 22-12-2016 15:45:00 4.2 C 6.19 g/m*3 4.2 C 0 km/h
191 22-12-2016 15:50:00 4.2 C 6.19 g/m*3 4.2 C 0 km/h
192 22-12-2016 15:55:00 4.2 C 6.19 g/m*3 4.2 C 0 km/h
193 22-12-2016 16:00:00 4.2 C 6.19 g/m*3 4.2 C 0 km/h
194 22-12-2016 16:05:00 4.2 C 6.19 g/m*3 4.2 C 0 km/h
195 22-12-2016 16:10:00 4.2 C 6.19 g/m*3 4.2 C 0 km/h
196 22-12-2016 16:15:00 4.2 C 6.19 g/m*3 4.2 C 0 km/h
197 22-12-2016 16:20:00 4.2 C 6.19 g/m*3 4.2 C 0 km/h
198 22-12-2016 16:25:00 4.1 C 6.14 g/m*3 4.1 C 0 km/h
199 22-12-2016 16:30:00 4.1 C 6.14 g/m*3 4.1 C 0 km/h
200 22-12-2016 16:35:00 4.1 C 6.14 g/m*3 4.1 C 0 km/h
Sensor: Nr:Datum:Temp:Abs-Feuchte:Windchill:Wind:
Aussen-T/F 201 22-12-2016 16:40:00 4 C 6.1 g/m*3 4 C 0 km/h
202 22-12-2016 16:45:00 4 C 6.1 g/m*3 4 C 0 km/h
203 22-12-2016 16:50:00 4 C 6.1 g/m*3 4 C 0 km/h
204 22-12-2016 16:55:00 4 C 6.1 g/m*3 4 C 0 km/h
205 22-12-2016 17:00:00 4 C 6.1 g/m*3 4 C 0 km/h
206 22-12-2016 17:05:00 4 C 6.1 g/m*3 4 C 0 km/h
207 22-12-2016 17:10:00 4 C 6.1 g/m*3 4 C 0 km/h
208 22-12-2016 17:15:00 4 C 6.1 g/m*3 4 C 0 km/h
209 22-12-2016 17:20:00 4 C 6.1 g/m*3 4 C 0 km/h
210 22-12-2016 17:25:00 4 C 6.1 g/m*3 4 C 0 km/h
211 22-12-2016 17:30:00 4 C 6.1 g/m*3 4 C 0 km/h
212 22-12-2016 17:35:00 4.1 C 6.14 g/m*3 4.1 C 0 km/h
213 22-12-2016 17:40:00 4.1 C 6.14 g/m*3 4.1 C 0 km/h
214 22-12-2016 17:45:00 4.1 C 6.14 g/m*3 4.1 C 0 km/h
215 22-12-2016 17:50:00 4.1 C 6.14 g/m*3 4.1 C 0 km/h
216 22-12-2016 17:55:00 4.1 C 6.14 g/m*3 4.1 C 0 km/h
217 22-12-2016 18:00:00 4.1 C 6.14 g/m*3 4.1 C 0 km/h
218 22-12-2016 18:05:00 4.1 C 6.14 g/m*3 4.1 C 0 km/h
219 22-12-2016 18:10:00 4.1 C 6.21 g/m*3 4.1 C 0 km/h
220 22-12-2016 18:15:00 4.1 C 6.21 g/m*3 4.1 C 0 km/h
221 22-12-2016 18:20:00 4.1 C 6.21 g/m*3 4.1 C 0 km/h
222 22-12-2016 18:25:00 4.1 C 6.21 g/m*3 4.1 C 0 km/h
223 22-12-2016 18:30:00 4.1 C 6.21 g/m*3 4.1 C 0 km/h
224 22-12-2016 18:35:00 4.1 C 6.21 g/m*3 4.1 C 0 km/h
225 22-12-2016 18:40:00 4.1 C 6.21 g/m*3 4.1 C 0 km/h
Sensor: Nr:Datum:Temp:Abs-Feuchte:Windchill:Wind:
Aussen-T/F 226 22-12-2016 18:45:00 4.1 C 6.21 g/m*3 4.1 C 1.6 km/h
227 22-12-2016 18:50:00 4.1 C 6.21 g/m*3 4.1 C 0 km/h
228 22-12-2016 18:55:00 4.1 C 6.14 g/m*3 4.1 C 0 km/h
229 22-12-2016 19:00:00 4 C 6.1 g/m*3 4 C 0 km/h
230 22-12-2016 19:05:00 4 C 6.1 g/m*3 4 C 0 km/h
231 22-12-2016 19:10:00 4 C 6.1 g/m*3 4 C 0 km/h
232 22-12-2016 19:15:00 3.9 C 6.06 g/m*3 3.9 C 0 km/h
233 22-12-2016 19:20:00 3.9 C 6.06 g/m*3 3.9 C 0 km/h
234 22-12-2016 19:25:00 3.9 C 6.06 g/m*3 3.9 C 0 km/h
235 22-12-2016 19:30:00 3.8 C 6.02 g/m*3 3.8 C 0 km/h
236 22-12-2016 19:35:00 3.8 C 6.02 g/m*3 3.8 C 0 km/h
237 22-12-2016 19:40:00 3.8 C 6.02 g/m*3 3.8 C 0 km/h
238 22-12-2016 19:45:00 3.8 C 6.02 g/m*3 3.8 C 0 km/h
239 22-12-2016 19:50:00 3.8 C 6.09 g/m*3 3.8 C 0 km/h
240 22-12-2016 19:55:00 3.7 C 6.04 g/m*3 3.7 C 0 km/h
241 22-12-2016 20:00:00 3.7 C 6.04 g/m*3 3.7 C 0 km/h
242 22-12-2016 20:05:00 3.7 C 6.04 g/m*3 3.7 C 0 km/h
243 22-12-2016 20:10:00 3.7 C 6.04 g/m*3 3.7 C 0 km/h
244 22-12-2016 20:15:00 3.7 C 6.04 g/m*3 3.7 C 0 km/h
245 22-12-2016 20:20:00 3.7 C 5.98 g/m*3 3.7 C 0 km/h
246 22-12-2016 20:25:00 3.7 C 5.98 g/m*3 3.7 C 0 km/h
247 22-12-2016 20:30:00 3.7 C 5.98 g/m*3 3.7 C 0 km/h
248 22-12-2016 20:35:00 3.7 C 5.98 g/m*3 3.7 C 0 km/h
249 22-12-2016 20:40:00 3.7 C 5.98 g/m*3 3.7 C 0 km/h
250 22-12-2016 20:45:00 3.7 C 5.98 g/m*3 3.7 C 0 km/h
Sensor: Nr:Datum:Temp:Abs-Feuchte:Windchill:Wind:
Aussen-T/F 251 22-12-2016 20:50:00 3.7 C 5.98 g/m*3 3.7 C 0 km/h
252 22-12-2016 20:55:00 3.8 C 6.02 g/m*3 3.8 C 0 km/h
253 22-12-2016 21:00:00 3.8 C 6.09 g/m*3 3.8 C 0 km/h
254 22-12-2016 21:05:00 3.8 C 6.09 g/m*3 3.8 C 0 km/h
255 22-12-2016 21:10:00 3.8 C 6.09 g/m*3 3.8 C 0 km/h
256 22-12-2016 21:15:00 3.8 C 6.09 g/m*3 3.8 C 0 km/h
257 22-12-2016 21:20:00 3.8 C 6.09 g/m*3 3.8 C 0 km/h
258 22-12-2016 21:25:00 3.9 C 6.13 g/m*3 3.9 C 0 km/h
259 22-12-2016 21:30:00 3.9 C 6.13 g/m*3 3.9 C 0 km/h
260 22-12-2016 21:35:00 4 C 6.17 g/m*3 4 C 0 km/h
261 22-12-2016 21:40:00 4 C 6.17 g/m*3 4 C 0 km/h
262 22-12-2016 21:45:00 4.1 C 6.21 g/m*3 4.1 C 0 km/h
263 22-12-2016 21:50:00 4.1 C 6.21 g/m*3 4.1 C 0 km/h
264 22-12-2016 21:55:00 4.1 C 6.21 g/m*3 4.1 C 0 km/h
265 22-12-2016 22:00:00 4.1 C 6.21 g/m*3 4.1 C 0 km/h
266 22-12-2016 22:05:00 4.1 C 6.21 g/m*3 4.1 C 0 km/h
267 22-12-2016 22:10:00 4.1 C 6.21 g/m*3 4.1 C 0 km/h
268 22-12-2016 22:15:00 4.1 C 6.21 g/m*3 4.1 C 0 km/h
269 22-12-2016 22:20:00 4.1 C 6.21 g/m*3 4.1 C 0 km/h
270 22-12-2016 22:25:00 4.1 C 6.21 g/m*3 4.1 C 0 km/h
271 22-12-2016 22:30:00 4.1 C 6.21 g/m*3 4.1 C 0 km/h
272 22-12-2016 22:35:00 4.1 C 6.21 g/m*3 4.1 C 0 km/h
273 22-12-2016 22:40:00 4.1 C 6.21 g/m*3 4.1 C 0 km/h
274 22-12-2016 22:45:00 4.1 C 6.21 g/m*3 4.1 C 0 km/h
275 22-12-2016 22:50:00 4.1 C 6.21 g/m*3 4.1 C 0 km/h
Sensor: Nr:Datum:Temp:Abs-Feuchte:Windchill:Wind:
Aussen-T/F 276 22-12-2016 22:55:00 4.2 C 6.25 g/m*3 4.2 C 0 km/h
277 22-12-2016 23:00:00 4.2 C 6.25 g/m*3 4.2 C 0 km/h
278 22-12-2016 23:05:00 4.2 C 6.25 g/m*3 4.2 C 0 km/h
279 22-12-2016 23:10:00 4.2 C 6.25 g/m*3 4.2 C 0 km/h
280 22-12-2016 23:15:00 4.2 C 6.25 g/m*3 4.2 C 0 km/h
281 22-12-2016 23:20:00 4.2 C 6.25 g/m*3 4.2 C 0 km/h
282 22-12-2016 23:25:00 4.2 C 6.25 g/m*3 4.2 C 0 km/h
283 22-12-2016 23:30:00 4.2 C 6.25 g/m*3 4.2 C 0 km/h
284 22-12-2016 23:35:00 4.2 C 6.25 g/m*3 4.2 C 0 km/h
285 22-12-2016 23:40:00 4.2 C 6.25 g/m*3 4.2 C 0 km/h
286 22-12-2016 23:45:00 4.2 C 6.25 g/m*3 4.2 C 0 km/h
287 22-12-2016 23:50:00 4.2 C 6.25 g/m*3 4.2 C 0 km/h
288 22-12-2016 23:55:00 4.2 C 6.25 g/m*3 4.2 C 0 km/h

Legende:
   Min
   Max


Maximal/Minimal-Werte vom 14.04.2020 - 16.05.2020

Sensor Min Max Avg
Temp
(Aussen-T/F)
-0.1 °C
15-04-2020  06:55:00
26.2 °C
17-04-2020  18:05:00
11.98 °C

Die Daten stammen von einer Davis Vantage Pro 2 Wetter-Station und werden unter Linux mit der Software wview2wettercgi und aufbereitet. Alle Angaben erfolgen ohne Gewähr für ihre Vollständigkeit oder Richtigkeit.
Kontakt: Rainer Krienke krienke@uni-koblenz.de . Meine Webseiten an der Uni Koblenz oder privat.
Version: $Revision: 0.78 $